TimeCDT,TemperatureF,Dew PointF,Humidity,Sea Level PressureIn,VisibilityMPH,Wind Direction,Wind SpeedMPH,Gust SpeedMPH,PrecipitationIn,Events,Conditions,WindDirDegrees,DateUTC
12:54 AM,66.9,61.0,81,29.72,9.0,SSW,5.8,-,N/A,,Clear,210,2012-09-07 05:54:00
1:54 AM,69.1,63.0,81,29.71,10.0,SSW,8.1,-,N/A,,Clear,200,2012-09-07 06:54:00
2:54 AM,70.0,63.0,78,29.71,9.0,West,5.8,-,N/A,,Clear,280,2012-09-07 07:54:00
3:54 AM,68.0,60.1,76,29.74,9.0,NNW,9.2,-,N/A,,Clear,330,2012-09-07 08:54:00
4:54 AM,66.9,57.0,70,29.80,10.0,NNW,18.4,25.3,N/A,,Clear,340,2012-09-07 09:54:00
5:54 AM,64.9,54.0,68,29.84,10.0,North,17.3,25.3,N/A,,Clear,350,2012-09-07 10:54:00
6:54 AM,63.0,54.0,72,29.90,10.0,North,19.6,28.8,N/A,,Clear,350,2012-09-07 11:54:00
7:54 AM,63.0,54.0,72,29.92,10.0,North,19.6,25.3,N/A,,Clear,350,2012-09-07 12:54:00
8:54 AM,64.9,54.0,68,29.95,10.0,North,16.1,25.3,N/A,,Partly Cloudy,350,2012-09-07 13:54:00
9:54 AM,66.9,53.1,61,30.00,10.0,North,20.7,25.3,N/A,,Clear,350,2012-09-07 14:54:00
10:54 AM,61.0,55.9,83,30.05,8.0,NNW,9.2,-,0.00,Rain,Light Rain,340,2012-09-07 15:54:00
11:54 AM,61.0,57.0,87,30.04,9.0,NNW,6.9,-,0.02,Rain,Light Rain,330,2012-09-07 16:54:00
12:54 PM,64.0,57.0,78,30.02,10.0,NNW,11.5,-,0.00,,Clear,340,2012-09-07 17:54:00
1:54 PM,68.0,55.9,65,30.02,10.0,North,12.7,-,N/A,,Partly Cloudy,350,2012-09-07 18:54:00
2:54 PM,73.9,50.0,43,30.03,10.0,NNW,18.4,25.3,N/A,,Partly Cloudy,340,2012-09-07 19:54:00
3:54 PM,75.0,48.0,38,30.02,10.0,NNW,16.1,23.0,N/A,,Partly Cloudy,330,2012-09-07 20:54:00
4:54 PM,75.9,48.0,37,30.01,10.0,North,15.0,-,N/A,,Scattered Clouds,10,2012-09-07 21:54:00
5:54 PM,73.9,45.0,35,30.00,10.0,NNW,15.0,21.9,N/A,,Clear,340,2012-09-07 22:54:00
6:54 PM,73.0,43.0,34,30.01,10.0,North,10.4,20.7,N/A,,Clear,350,2012-09-07 23:54:00
7:54 PM,64.9,45.0,48,30.03,10.0,NNW,8.1,-,N/A,,Clear,330,2012-09-08 00:54:00
8:54 PM,57.0,46.9,69,30.06,10.0,NNW,5.8,-,N/A,,Clear,340,2012-09-08 01:54:00
9:54 PM,55.9,46.0,69,30.08,10.0,NNW,8.1,-,N/A,,Clear,340,2012-09-08 02:54:00
10:54 PM,53.1,46.0,77,30.11,10.0,NNW,5.8,-,N/A,,Clear,340,2012-09-08 03:54:00
11:54 PM,52.0,44.1,74,30.12,10.0,NNW,6.9,-,N/A,,Clear,330,2012-09-08 04:54:00